GW6703 Weather Reports


time (UTC)temp
C
wind
direction
speed
KPH
gust
KPH
rain 1hr
cm
rain 24hr
cm
rain mn
cm
humidity
%
barometer
mb
20260902141623 22 287 3.2 8.0 0.00 0.28 0.00 51 1019.5
20260902141122 23 307 6.4 8.0 0.00 0.28 0.00 52 1019.3
20260902140526 23 278 9.7 14.5 0.00 0.28 0.00 51 1019.7
20260902140022 23 297 1.6 9.7 0.00 0.28 0.00 51 1019.5
20260902135521 23 261 3.2 9.7 0.00 0.28 0.00 50 1019.5
20260902134922 23 287 8.0 14.5 0.00 0.28 0.00 50 1019.5
20260902134422 23 323 8.0 12.9 0.00 0.28 0.00 53 1019.3
20260902133822 23 203 6.4 14.5 0.00 0.28 0.00 51 1019.6
20260902133222 23 301 6.4 16.1 0.00 0.28 0.00 51 1019.6
20260902132622 23 212 11.3 16.1 0.00 0.28 0.00 51 1019.6
20260902132122 23 255 8.0 9.7 0.00 0.28 0.00 51 1019.9
20260902131524 23 271 8.0 14.5 0.00 0.28 0.00 52 1019.7
20260902131021 23 263 4.8 11.3 0.00 0.28 0.00 53 1019.6
20260902130422 22 257 9.7 11.3 0.00 0.28 0.00 53 1019.8
20260902125822 22 287 8.0 9.7 0.00 0.28 0.00 53 1019.8
20260902125223 22 294 11.3 16.1 0.00 0.28 0.00 55 1019.8
20260902124723 22 316 4.8 12.9 0.00 0.28 0.00 53 1020.0
20260902124222 22 271 6.4 8.0 0.00 0.28 0.00 53 1020.1
20260902123722 22 259 9.7 9.7 0.00 0.28 0.00 52 1019.9
20260902123223 23 268 9.7 9.7 0.00 0.28 0.00 55 1019.9
20260902122723 22 269 4.8 14.5 0.00 0.28 0.00 54 1020.0
20260902122223 23 262 8.0 9.7 0.00 0.28 0.00 53 1020.0
20260902121723 23 350 3.2 9.7 0.00 0.28 0.00 52 1020.0
20260902121123 22 287 1.6 9.7 0.00 0.28 0.00 54 1020.2
20260902120623 22 233 8.0 8.0 0.00 0.28 0.00 56 1020.3
20260902120023 22 239 8.0 8.0 0.00 0.28 0.00 55 1020.3
20260902115522 21 274 3.2 6.4 0.00 0.28 0.00 56 1020.4
20260902114923 22 296 3.2 6.4 0.00 0.28 0.00 55 1020.4
20260902114323 22 344 1.6 4.8 0.00 0.28 0.00 55 1020.7
20260902113822 22 302 4.8 8.0 0.00 0.28 0.00 56 1020.7
20260902113322 22 289 1.6 4.8 0.00 0.28 0.00 58 1020.4
20260902112822 21 187 1.6 4.8 0.00 0.28 0.00 57 1020.4
20260902112322 21 356 3.2 6.4 0.00 0.28 0.00 56 1020.5
20260902111822 21 278 8.0 9.7 0.00 0.28 0.00 56 1020.6
20260902111322 22 268 8.0 12.9 0.00 0.28 0.00 56 1020.4
20260902110822 22 275 8.0 8.0 0.00 0.28 0.00 54 1020.4
20260902110322 21 285 3.2 3.2 0.00 0.28 0.00 57 1020.8
20260902105724 21 306 6.4 8.0 0.00 0.28 0.00 58 1020.7
20260902105125 21 284 4.8 8.0 0.00 0.28 0.00 57 1021.0
20260902104523 21 256 6.4 8.0 0.00 0.28 0.00 57 1021.0
20260902103926 21 253 8.0 9.7 0.00 0.28 0.00 56 1020.8
20260902103323 21 274 4.8 9.7 0.00 0.28 0.00 56 1021.0
20260902102823 21 282 8.0 16.1 0.00 0.28 0.00 55 1021.1
20260902102223 21 299 3.2 6.4 0.00 0.28 0.00 59 1020.9
20260902101722 20 273 4.8 8.0 0.00 0.28 0.00 60 1021.1
20260902101125 20 266 3.2 11.3 0.00 0.28 0.00 61 1021.0
20260902100525 20 261 3.2 6.4 0.00 0.28 0.00 65 1021.2
20260902100022 20 291 3.2 6.4 0.00 0.28 0.00 65 1021.3
20260902095422 20 268 8.0 12.9 0.00 0.28 0.00 64 1021.2
20260902094922 20 259 3.2 8.0 0.00 0.28 0.00 64 1021.4
20260902094422 20 342 4.8 8.0 0.00 0.28 0.00 64 1021.1
20260902093922 20 282 3.2 8.0 0.00 0.28 0.00 65 1021.2
20260902093423 20 290 8.0 9.7 0.00 0.28 0.00 67 1021.4
20260902092922 19 271 4.8 9.7 0.00 0.28 0.00 66 1021.3
20260902092323 20 273 4.8 9.7 0.00 0.28 0.00 66 1021.2
20260902091822 20 266 4.8 12.9 0.00 0.28 0.00 68 1021.3
20260902091322 20 230 4.8 14.5 0.00 0.28 0.00 68 1021.3
20260902090822 20 271 6.4 9.7 0.00 0.28 0.00 70 1021.4
20260902090322 20 305 4.8 14.5 0.00 0.28 0.00 69 1021.5
20260902085822 20 258 8.0 16.1 0.00 0.28 0.00 70 1021.5
20260902085322 19 233 3.2 8.0 0.00 0.28 0.00 73 1021.3
20260902084725 19 305 0.0 6.4 0.00 0.28 0.00 75 1021.4
20260902084125 18 260 3.2 9.7 0.00 0.28 0.00 76 1021.1
20260902083622 18 253 4.8 6.4 0.00 0.28 0.00 79 1021.5
20260902083022 18 321 3.2 6.4 0.00 0.28 0.00 80 1021.1
20260902082422 18 318 3.2 9.7 0.00 0.28 0.00 81 1021.5
20260902081922 17 264 3.2 8.0 0.00 0.28 0.00 81 1021.3
20260902081325 17 249 3.2 8.0 0.00 0.28 0.00 83 1021.5
20260902080722 17 255 3.2 8.0 0.00 0.28 0.00 83 1021.5
20260902080122 17 322 3.2 6.4 0.00 0.28 0.00 83 1021.3
20260902075522 17 323 0.0 6.4 0.00 0.28 0.00 83 1021.5
20260902074922 16 308 3.2 8.0 0.00 0.28 0.00 84 1021.5
20260902074322 16 263 4.8 6.4 0.00 0.28 0.00 86 1021.5
20260902073722 16 285 3.2 8.0 0.00 0.28 0.00 85 1021.4
20260902073122 16 286 3.2 4.8 0.00 0.28 0.00 87 1021.4
20260902072525 16 340 3.2 4.8 0.00 0.28 0.00 87 1021.4
20260902072022 15 288 1.6 3.2 0.00 0.28 0.00 88 1021.3
20260902071422 15 285 3.2 4.8 0.00 0.28 0.00 88 1021.4
20260902070825 15 280 3.2 4.8 0.00 0.28 0.00 89 1021.5
20260902070223 15 275 1.6 4.8 0.00 0.28 0.00 89 1021.5
20260902065722 15 172 3.2 4.8 0.00 0.28 0.00 89 1021.4
20260902065122 14 275 3.2 4.8 0.00 0.28 0.00 89 1021.4
20260902064622 14 253 1.6 4.8 0.00 0.28 0.00 91 1021.3
20260902064030 14 285 4.8 6.4 0.00 0.28 0.00 91 1021.5
20260902063522 13 258 4.8 6.4 0.00 0.28 0.00 91 1021.4
20260902063022 13 263 4.8 6.4 0.00 0.28 0.00 93 1021.5
20260902062522 13 247 4.8 8.0 0.00 0.28 0.00 95 1021.6
20260902061928 13 275 3.2 6.4 0.00 0.28 0.00 96 1021.5
20260902061422 12 261 3.2 6.4 0.00 0.28 0.00 98 1021.5
20260902060822 12 268 4.8 6.4 0.00 0.28 0.00 98 1021.4
20260902060225 12 271 4.8 6.4 0.00 0.28 0.00 98 1021.7
20260902055631 11 266 4.8 6.4 0.00 0.28 0.00 98 1021.4
20260902055123 11 285 3.2 4.8 0.00 0.28 0.00 98 1021.5
20260902054622 11 301 4.8 8.0 0.00 0.28 0.00 98 1021.5
20260902054122 11 278 6.4 6.4 0.00 0.28 0.00 98 1021.4
20260902053622 11 271 4.8 6.4 0.00 0.28 0.00 98 1021.6
20260902053123 11 257 4.8 6.4 0.00 0.28 0.00 98 1021.7
20260902052622 11 290 4.8 6.4 0.00 0.28 0.00 98 1021.7
20260902052122 11 303 4.8 4.8 0.00 0.28 0.00 98 1021.5
20260902051622 11 304 4.8 4.8 0.00 0.28 0.00 98 1021.4
20260902051025 11 309 3.2 4.8 0.00 0.28 0.00 98 1021.5
20260902050425 11 321 3.2 4.8 0.00 0.28 0.00 98 1021.5
20260902045925 10 297 1.6 3.2 0.00 0.28 0.00 98 1021.3
20260902045326 10 23 3.2 4.8 0.00 0.28 0.00 98 1021.4
20260902044725 10 355 3.2 3.2 0.00 0.28 0.00 98 1021.3
20260902044223 10 31 4.8 4.8 0.00 0.28 0.00 98 1021.4
20260902043623 10 12 3.2 4.8 0.00 0.28 0.00 98 1021.4
20260902043023 10 332 3.2 4.8 0.00 0.28 0.00 97 1021.7
20260902042523 10 350 3.2 4.8 0.00 0.28 0.00 97 1021.6
20260902042022 10 16 3.2 6.4 0.00 0.28 0.00 97 1021.7
20260902041522 10 21 3.2 3.2 0.00 0.28 0.00 97 1021.7
20260902041022 10 322 3.2 4.8 0.00 0.28 0.00 97 1021.8
20260902040522 10 1 3.2 3.2 0.00 0.25 0.00 97 1021.7
20260902035922 10 320 3.2 3.2 0.00 0.25 0.00 97 1021.9
20260902035421 10 17 3.2 3.2 0.00 0.25 0.00 97 1021.8
20260902034921 11 11 4.8 4.8 0.00 0.25 0.00 97 1021.6
20260902034322 11 322 3.2 4.8 0.00 0.25 0.00 97 1021.8
20260902033822 11 283 3.2 4.8 0.00 0.25 0.00 97 1021.7
20260902033321 11 290 3.2 3.2 0.00 0.25 0.00 97 1021.6
20260902032821 11 297 3.2 4.8 0.00 0.25 0.00 97 1021.6
20260902032321 11 289 3.2 4.8 0.00 0.25 0.00 97 1021.8
20260902031821 11 299 1.6 4.8 0.00 0.25 0.00 97 1021.3
20260902031321 11 314 4.8 6.4 0.00 0.25 0.00 97 1021.3
20260902030821 11 305 3.2 4.8 0.00 0.25 0.00 97 1021.5
20260902030321 11 292 3.2 3.2 0.00 0.25 0.00 97 1021.2
20260902025821 11 306 3.2 6.4 0.00 0.25 0.00 96 1021.3
20260902025321 11 285 3.2 4.8 0.00 0.25 0.00 96 1021.4
20260902024821 11 285 3.2 4.8 0.00 0.25 0.00 97 1021.1
20260902024321 11 312 3.2 4.8 0.00 0.25 0.00 96 1021.1
20260902023821 11 327 3.2 6.4 0.00 0.25 0.00 97 1021.3
20260902023321 12 294 3.2 4.8 0.00 0.25 0.00 97 1021.1
20260902022821 11 249 0.0 3.2 0.00 0.25 0.00 97 1021.0
20260902022221 11 318 3.2 4.8 0.00 0.25 0.00 96 1021.2
20260902021621 12 311 3.2 4.8 0.00 0.25 0.00 97 1021.3
20260902021121 12 306 3.2 4.8 0.00 0.25 0.00 96 1021.0
20260902020522 12 321 3.2 3.2 0.00 0.25 0.00 96 1021.2
20260902015921 12 306 3.2 4.8 0.00 0.25 0.00 97 1021.1
20260902015322 12 317 3.2 4.8 0.00 0.25 0.00 97 1021.3
20260902014822 12 318 3.2 4.8 0.00 0.25 0.00 96 1021.3
20260902014321 12 307 3.2 4.8 0.00 0.25 0.00 96 1021.3
20260902013722 12 311 3.2 4.8 0.00 0.25 0.00 96 1021.3
20260902013221 12 295 3.2 4.8 0.00 0.25 0.00 96 1021.4
20260902012721 12 298 3.2 6.4 0.00 0.25 0.00 96 1021.5
20260902012221 12 315 4.8 6.4 0.00 0.25 0.00 96 1021.5
20260902011721 12 313 3.2 4.8 0.00 0.25 0.00 96 1021.2
20260902011221 12 317 3.2 4.8 0.00 0.25 0.00 96 1021.4
20260902010721 12 302 3.2 4.8 0.00 0.25 0.00 96 1021.4
20260902010221 12 296 3.2 4.8 0.00 0.25 0.00 96 1021.4
20260902005721 12 298 3.2 4.8 0.00 0.25 0.00 96 1021.3
20260902005122 12 281 1.6 3.2 0.00 0.25 0.00 95 1021.5
20260902004525 12 326 3.2 4.8 0.00 0.25 0.00 95 1021.4
20260902004022 12 333 0.0 4.8 0.00 0.25 0.00 95 1021.3
20260902003422 12 318 3.2 4.8 0.00 0.25 0.00 95 1021.3
20260902002822 12 291 3.2 4.8 0.00 0.25 0.00 95 1021.3
20260902002222 13 299 3.2 4.8 0.00 0.25 0.00 95 1021.3
20260902001622 13 293 3.2 4.8 0.00 0.25 0.00 95 1021.3
20260902001122 13 287 3.2 4.8 0.00 0.25 0.00 95 1021.4
20260902000522 13 275 3.2 4.8 0.00 0.25 0.00 95 1021.2
20260901235921 13 282 3.2 4.8 0.00 0.25 0.00 95 1021.1
20260901235321 13 303 3.2 4.8 0.00 0.25 0.00 95 1021.1
20260901234722 13 282 3.2 4.8 0.00 0.25 0.00 95 1020.9
20260901234221 13 310 1.6 4.8 0.00 0.25 0.00 95 1021.1
20260901233721 13 315 3.2 4.8 0.00 0.25 0.00 95 1021.0
20260901233221 13 300 4.8 4.8 0.00 0.25 0.00 96 1020.8
20260901232621 13 273 4.8 4.8 0.00 0.25 0.00 96 1020.8
20260901232021 13 296 3.2 4.8 0.00 0.25 0.00 95 1021.2
20260901231421 13 288 3.2 4.8 0.00 0.25 0.00 95 1020.9
20260901230821 13 295 3.2 6.4 0.00 0.25 0.00 95 1020.7
20260901230221 13 303 3.2 4.8 0.00 0.25 0.00 94 1020.9
20260901225621 13 304 3.2 6.4 0.00 0.25 0.00 94 1021.0
20260901225021 14 290 3.2 4.8 0.00 0.25 0.00 94 1021.0
20260901224521 14 322 1.6 4.8 0.00 0.25 0.00 94 1020.9
20260901224021 14 305 3.2 6.4 0.00 0.25 0.00 94 1020.7
20260901223421 14 277 3.2 4.8 0.00 0.25 0.00 94 1020.9
20260901222921 14 316 3.2 6.4 0.00 0.25 0.00 94 1021.0
20260901222321 14 316 3.2 3.2 0.00 0.25 0.00 94 1020.8
20260901221721 14 326 4.8 4.8 0.00 0.25 0.00 94 1020.8
20260901221121 14 321 4.8 6.4 0.00 0.25 0.00 95 1020.7
20260901220521 14 298 3.2 4.8 0.00 0.25 0.00 95 1020.7
20260901220021 14 287 3.2 4.8 0.00 0.25 0.00 94 1020.9
20260901215521 14 282 4.8 6.4 0.00 0.25 0.25 94 1021.1
20260901214921 15 245 4.8 4.8 0.00 0.25 0.25 94 1020.7
20260901214321 15 320 1.6 4.8 0.00 0.25 0.25 94 1020.6
20260901213821 15 343 3.2 4.8 0.00 0.25 0.25 94 1020.7
20260901213221 15 309 3.2 4.8 0.00 0.25 0.25 94 1021.0
20260901212621 15 285 3.2 4.8 0.00 0.25 0.25 94 1020.7
20260901212021 15 314 1.6 4.8 0.00 0.25 0.25 94 1020.9
20260901211421 15 288 3.2 4.8 0.00 0.25 0.25 94 1020.7
20260901210821 15 280 4.8 6.4 0.00 0.25 0.25 93 1020.6
20260901210221 15 300 3.2 4.8 0.00 0.25 0.25 93 1020.8
20260901205721 15 317 1.6 6.4 0.00 0.25 0.25 93 1020.9
20260901205121 15 331 3.2 6.4 0.00 0.25 0.25 93 1020.7
20260901204521 16 279 4.8 6.4 0.00 0.25 0.25 93 1020.8
20260901203921 15 305 6.4 8.0 0.00 0.25 0.25 94 1020.7
20260901203321 15 253 6.4 9.7 0.00 0.25 0.25 95 1020.7
20260901202721 15 279 3.2 4.8 0.00 0.25 0.25 96 1020.7
20260901202121 15 268 3.2 4.8 0.00 0.25 0.25 96 1020.7
20260901201522 15 273 3.2 6.4 0.00 0.25 0.25 96 1020.4
20260901201021 15 267 3.2 4.8 0.00 0.25 0.25 96 1020.7
20260901200422 15 302 3.2 4.8 0.00 0.25 0.25 96 1020.7
20260901195822 15 306 3.2 4.8 0.00 0.25 0.25 95 1020.7
20260901195221 15 279 3.2 3.2 0.00 0.25 0.25 95 1020.6
20260901194621 16 314 3.2 4.8 0.00 0.25 0.25 95 1020.5
20260901194022 16 291 1.6 6.4 0.00 0.25 0.25 95 1020.5
20260901193520 16 327 3.2 4.8 0.00 0.25 0.25 95 1020.3
20260901192921 16 289 3.2 4.8 0.00 0.25 0.25 95 1020.5
20260901192420 16 283 3.2 4.8 0.00 0.25 0.25 95 1020.5
20260901191821 16 347 3.2 6.4 0.00 0.25 0.25 95 1020.4
20260901191222 16 333 1.6 4.8 0.00 0.25 0.25 95 1020.4
20260901190622 16 330 3.2 4.8 0.00 0.25 0.25 95 1020.2
20260901190021 16 340 4.8 4.8 0.00 0.25 0.25 95 1020.0
20260901185421 16 278 3.2 6.4 0.00 0.25 0.25 95 1020.3
20260901184920 16 323 4.8 8.0 0.00 0.25 0.25 95 1020.2
20260901184321 16 285 3.2 9.7 0.00 0.25 0.25 95 1020.0
20260901183820 16 320 3.2 6.4 0.00 0.25 0.25 95 1020.1
20260901183321 16 47 3.2 6.4 0.00 0.25 0.25 95 1020.0
20260901182820 16 330 3.2 8.0 0.00 0.25 0.25 95 1020.1
20260901182320 16 317 4.8 6.4 0.00 0.25 0.25 94 1020.1
20260901181820 16 303 4.8 6.4 0.03 0.25 0.25 94 1019.9
20260901181320 16 313 3.2 4.8 0.03 0.25 0.25 94 1019.8
20260901180820 16 290 6.4 6.4 0.05 0.25 0.25 94 1019.7
20260901180319 16 350 3.2 6.4 0.05 0.25 0.25 94 1019.5
20260901175720 16 56 0.0 4.8 0.05 0.36 0.25 93 1020.0
20260901175219 16 285 1.6 3.2 0.05 0.36 0.25 93 1019.6
20260901174719 16 313 3.2 4.8 0.05 0.36 0.25 93 1019.8
20260901174220 16 284 3.2 4.8 0.08 0.36 0.25 92 1019.5
20260901173620 16 294 3.2 3.2 0.15 0.36 0.25 91 1019.6
20260901173021 16 288 3.2 3.2 0.18 0.36 0.25 90 1019.5
20260901172420 16 289 8.0 11.3 0.23 0.33 0.23 90 1019.8
20260901171820 16 285 4.8 12.9 0.23 0.33 0.23 90 1019.5
20260901171319 16 285 4.8 11.3 0.20 0.30 0.20 90 1019.8
20260901170819 16 298 8.0 9.7 0.20 0.30 0.20 90 1019.7
20260901170319 16 256 1.6 4.8 0.20 0.30 0.20 89 1019.5
20260901165818 16 311 4.8 4.8 0.20 0.43 0.20 88 1019.3
20260901165219 16 335 0.0 6.4 0.20 0.43 0.20 86 1019.4
20260901164719 16 329 3.2 4.8 0.18 0.43 0.18 87 1019.6
20260901164219 17 357 1.6 8.0 0.13 0.38 0.13 85 1019.7
20260901163719 17 302 6.4 19.3 0.10 0.33 0.10 83 1019.8
20260901163219 18 261 8.0 16.1 0.08 0.33 0.08 80 1019.5
20260901162620 21 246 17.7 37.0 0.00 0.25 0.00 72 1019.3
20260901162020 22 288 9.7 12.9 0.00 0.25 0.00 56 1018.6
20260901161519 22 278 4.8 8.0 0.00 0.25 0.00 56 1018.6
20260901160920 22 263 9.7 11.3 0.00 0.25 0.00 55 1018.6
20260901160419 22 245 4.8 12.9 0.00 0.25 0.00 55 1018.4
20260901155820 22 278 8.0 12.9 0.00 0.28 0.00 53 1018.6
20260901155220 23 293 16.1 16.1 0.00 0.28 0.00 53 1018.6
20260901154719 23 289 6.4 8.0 0.00 0.28 0.00 52 1018.7
20260901154120 23 288 8.0 14.5 0.00 0.28 0.00 51 1018.2
20260901153521 24 256 8.0 20.9 0.00 0.28 0.00 48 1018.5
20260901153020 24 291 9.7 12.9 0.00 0.28 0.00 48 1018.2
20260901152519 23 317 4.8 9.7 0.00 0.28 0.00 50 1018.5
20260901152019 23 235 4.8 9.7 0.00 0.28 0.00 51 1018.7
20260901151519 23 277 6.4 11.3 0.00 0.28 0.00 50 1018.3
20260901151019 23 269 9.7 17.7 0.00 0.28 0.00 50 1018.4
20260901150420 23 299 6.4 8.0 0.00 0.28 0.00 51 1018.5
20260901145821 23 275 6.4 12.9 0.00 0.58 0.00 51 1018.4
20260901145320 23 267 8.0 16.1 0.00 0.58 0.00 49 1018.3
20260901144819 23 287 8.0 14.5 0.00 0.58 0.00 49 1018.5
20260901144220 23 252 8.0 14.5 0.00 0.58 0.00 51 1018.6
20260901143719 23 272 6.4 14.5 0.00 0.58 0.00 52 1018.6
20260901143219 23 242 9.7 16.1 0.00 0.58 0.00 51 1018.7
20260901142622 23 268 3.2 17.7 0.00 0.58 0.00 51 1018.7